KB1WCR Weather Reports


Display with metric or nautical units.
time (UTC)temp
F
wind
direction
speed
MPH
gust
MPH
rain 1hr
in
rain 24hr
in
rain mn
in
humidity
%
barometer
mb
20260906133301 63 38 2.0 3.0 0.00 0.10 0.10 81 1015.5
20260906132757 62 316 0.0 1.0 0.00 0.10 0.10 88 1015.6
20260906132252 62 89 1.0 2.0 0.00 0.10 0.10 85 1015.6
20260906131747 61 351 1.0 2.0 0.00 0.10 0.10 89 1015.8
20260906131242 61 246 2.0 2.0 0.00 0.10 0.10 91 1015.6
20260906130738 61 283 3.0 6.0 0.00 0.10 0.10 91 1015.8
20260906130233 60 31 1.0 1.0 0.00 0.10 0.10 95 1015.6
20260906125731 59 328 2.0 3.0 0.00 0.10 0.10 95 1015.6
20260906125229 58 285 0.0 0.0 0.00 0.10 0.10 98 1015.6
20260906124724 58 309 1.0 1.0 0.00 0.10 0.10 97 1015.7
20260906124220 59 56 1.0 2.0 0.00 0.10 0.10 96 1015.8
20260906123718 58 124 0.0 1.0 0.00 0.10 0.10 97 1015.8
20260906123214 58 33 1.0 1.0 0.00 0.10 0.10 99 1015.9
20260906122713 58 318 0.0 1.0 0.00 0.10 0.10 99 1015.9
20260906122209 57 320 0.0 1.0 0.00 0.10 0.10 99 1015.9
20260906121705 57 8 0.0 1.0 0.00 0.10 0.10 99 1015.8
20260906121201 57 354 2.0 2.0 0.00 0.10 0.10 99 1015.9
20260906120656 57 310 0.0 0.0 0.00 0.10 0.10 99 1015.8
20260906120153 57 311 0.0 0.0 0.00 0.10 0.10 99 1015.9
20260906115648 57 320 0.0 0.0 0.00 0.10 0.10 99 1015.6
20260906115144 57 357 1.0 1.0 0.00 0.10 0.10 99 1015.7
20260906114642 57 335 0.0 0.0 0.00 0.10 0.10 99 1015.6
20260906114137 57 307 0.0 0.0 0.00 0.10 0.10 99 1015.8
20260906113632 56 338 0.0 0.0 0.00 0.10 0.10 99 1015.5
20260906113127 56 331 0.0 1.0 0.00 0.10 0.10 99 1015.6
20260906112626 56 291 0.0 1.0 0.00 0.10 0.10 99 1015.3
20260906112123 55 294 0.0 0.0 0.00 0.10 0.10 99 1015.3
20260906111622 55 318 0.0 0.0 0.00 0.10 0.10 99 1015.4
20260906111118 55 304 0.0 0.0 0.00 0.10 0.10 99 1015.3
20260906110618 55 298 0.0 0.0 0.00 0.10 0.10 99 1015.4
20260906110112 54 299 0.0 0.0 0.00 0.10 0.10 99 1015.2
20260906105607 54 292 0.0 0.0 0.00 0.10 0.10 99 1015.2
20260906105103 54 294 0.0 0.0 0.00 0.10 0.10 99 1015.0
20260906104602 54 303 0.0 1.0 0.00 0.10 0.10 99 1015.2
20260906104056 54 291 0.0 0.0 0.00 0.10 0.10 99 1015.2
20260906103554 54 303 0.0 0.0 0.00 0.10 0.10 99 1015.1
20260906103050 54 320 0.0 0.0 0.00 0.10 0.10 99 1015.2
20260906102549 54 316 0.0 0.0 0.17 0.10 0.10 99 1015.2
20260906102044 54 309 0.0 0.0 0.28 0.10 0.10 99 1015.3
20260906101539 55 305 0.0 1.0 0.28 0.08 0.08 99 1015.3
20260906101033 55 29 2.0 2.0 0.19 0.05 0.05 99 1015.2
20260906100529 55 320 0.0 0.0 0.12 0.03 0.03 99 1015.2
20260906100024 55 326 0.0 0.0 0.05 0.02 0.02 99 1015.1
20260906095519 55 320 0.0 0.0 0.00 0.01 0.01 99 1015.0
20260906095014 55 311 0.0 0.0 0.00 0.01 0.01 99 1015.0
20260906094513 55 304 0.0 0.0 0.07 0.01 0.01 99 1014.9
20260906094009 55 320 0.0 0.0 0.07 0.01 0.01 98 1014.9
20260906093505 55 318 0.0 0.0 0.00 0.00 0.00 98 1014.9
20260906093000 55 316 0.0 0.0 0.00 0.00 0.00 98 1015.1
20260906092500 55 324 0.0 0.0 0.00 0.00 0.00 98 1014.8
20260906091955 55 324 0.0 0.0 0.00 0.00 0.00 98 1015.0
20260906091450 55 305 0.0 0.0 0.00 0.00 0.00 98 1014.9
20260906090947 55 303 0.0 0.0 0.00 0.00 0.00 99 1014.7
20260906090442 55 301 0.0 0.0 0.00 0.00 0.00 99 1014.7
20260906085942 55 296 0.0 0.0 0.00 0.00 0.00 99 1014.7
20260906085441 55 299 0.0 0.0 0.00 0.00 0.00 99 1014.6
20260906084940 55 296 1.0 1.0 0.00 0.00 0.00 98 1014.5
20260906084435 55 306 0.0 0.0 0.00 0.00 0.00 97 1014.3
20260906083934 55 324 0.0 0.0 0.00 0.00 0.00 97 1014.4
20260906083430 55 345 0.0 0.0 0.00 0.00 0.00 97 1014.4
20260906082929 55 311 0.0 0.0 0.00 0.00 0.00 97 1014.3
20260906082425 54 308 0.0 0.0 0.00 0.00 0.00 98 1014.4
20260906081920 54 316 0.0 0.0 0.00 0.00 0.00 98 1014.3
20260906081415 54 301 0.0 0.0 0.00 0.00 0.00 98 1014.4
20260906080912 54 315 0.0 0.0 0.00 0.00 0.00 99 1014.4
20260906080408 54 307 0.0 0.0 0.00 0.00 0.00 99 1014.1
20260906075907 54 296 0.0 0.0 0.00 0.00 0.00 99 1014.4
20260906075402 54 295 0.0 0.0 0.00 0.00 0.00 99 1014.2
20260906074858 54 314 0.0 0.0 0.00 0.00 0.00 99 1014.1
20260906074357 53 140 1.0 1.0 0.00 0.00 0.00 99 1014.1
20260906073856 53 316 0.0 0.0 0.00 0.00 0.00 99 1014.3
20260906073351 53 306 0.0 0.0 0.00 0.00 0.00 99 1014.4
20260906072848 53 333 0.0 0.0 0.00 0.00 0.00 99 1014.4
20260906072343 53 305 0.0 0.0 0.00 0.00 0.00 99 1014.4
20260906071839 53 305 0.0 0.0 0.00 0.00 0.00 99 1014.4
20260906071334 53 301 0.0 0.0 0.00 0.00 0.00 99 1014.2
20260906070830 53 292 0.0 0.0 0.00 0.00 0.00 99 1014.2
20260906070325 53 307 0.0 0.0 0.00 0.00 0.00 99 1014.1
20260906065820 53 310 0.0 0.0 0.00 0.00 0.00 99 1014.2
20260906065315 53 315 0.0 0.0 0.00 0.00 0.00 99 1014.1
20260906064811 53 310 0.0 0.0 0.00 0.00 0.00 99 1014.1
20260906064307 53 313 0.0 0.0 0.00 0.00 0.00 99 1013.8
20260906063801 53 309 0.0 0.0 0.00 0.00 0.00 99 1013.8
20260906063257 52 315 0.0 0.0 0.00 0.00 0.00 99 1014.1
20260906062752 52 307 0.0 0.0 0.00 0.00 0.00 99 1014.0
20260906062251 52 307 0.0 0.0 0.00 0.00 0.00 99 1013.6
20260906061747 53 307 0.0 0.0 0.00 0.00 0.00 99 1013.9
20260906061243 53 309 0.0 0.0 0.00 0.00 0.00 99 1013.9
20260906060738 53 307 0.0 0.0 0.00 0.00 0.00 99 1013.9
20260906060236 53 306 0.0 0.0 0.00 0.00 0.00 99 1014.0
20260906055731 53 307 0.0 0.0 0.00 0.00 0.00 98 1013.9
20260906055226 54 309 0.0 0.0 0.00 0.00 0.00 98 1014.1
20260906054721 54 307 0.0 0.0 0.00 0.00 0.00 97 1014.1
20260906054216 54 306 0.0 0.0 0.00 0.00 0.00 97 1014.1
20260906053713 54 310 0.0 0.0 0.00 0.00 0.00 97 1014.1
20260906053208 54 311 0.0 0.0 0.00 0.00 0.00 97 1014.1
20260906052703 55 306 0.0 0.0 0.00 0.00 0.00 97 1013.8
20260906052159 54 309 0.0 0.0 0.00 0.00 0.00 96 1014.0
20260906051656 55 309 0.0 0.0 0.00 0.00 0.00 96 1014.1
20260906051155 55 302 0.0 0.0 0.00 0.00 0.00 96 1014.2
20260906050651 55 300 0.0 0.0 0.00 0.00 0.00 96 1014.0
20260906050146 55 309 0.0 0.0 0.00 0.00 0.00 95 1014.1
20260906045644 55 296 0.0 0.0 0.00 0.00 0.00 95 1014.1
20260906045140 54 310 0.0 0.0 0.00 0.00 0.00 96 1014.1
20260906044636 54 292 0.0 0.0 0.00 0.00 0.00 97 1014.1
20260906044131 53 308 0.0 0.0 0.00 0.00 0.00 98 1013.9
20260906043627 53 307 0.0 0.0 0.00 0.00 0.00 98 1013.9
20260906043122 53 310 0.0 0.0 0.00 0.00 0.00 98 1013.9
20260906042621 53 310 0.0 0.0 0.00 0.00 0.00 97 1013.9
20260906042115 53 301 0.0 0.0 0.00 0.00 0.00 97 1014.1
20260906041612 54 309 0.0 0.0 0.00 0.00 0.00 96 1014.1
20260906041106 54 309 0.0 0.0 0.00 0.00 0.00 95 1014.0
20260906040602 54 309 0.0 0.0 0.00 0.00 0.00 95 1014.1
20260906040057 55 309 0.0 0.0 0.00 0.00 0.00 94 1014.0
20260906035552 55 313 0.0 0.0 0.00 0.02 0.02 93 1013.9
20260906035048 56 317 0.0 0.0 0.00 0.02 0.02 92 1013.9
20260906034548 56 307 0.0 0.0 0.00 0.02 0.02 90 1014.0
20260906034037 57 299 0.0 0.0 0.00 0.02 0.02 89 1014.0
20260906033532 58 296 0.0 0.0 0.00 0.02 0.02 88 1013.8
20260906033028 58 311 0.0 0.0 0.00 0.02 0.02 87 1013.9
20260906032524 59 349 0.0 0.0 0.00 0.02 0.02 86 1013.9
20260906032024 59 224 0.0 0.0 0.00 0.02 0.02 86 1013.7
20260906031520 59 300 0.0 0.0 0.00 0.02 0.02 85 1013.7
20260906031010 60 349 0.0 0.0 0.00 0.02 0.02 84 1013.8
20260906030509 60 343 0.0 0.0 0.00 0.02 0.02 83 1013.8
20260906030009 61 321 0.0 0.0 0.00 0.02 0.02 83 1013.8
20260906025508 61 340 0.0 1.0 0.00 0.02 0.02 82 1013.6
20260906025006 61 314 0.0 1.0 0.00 0.02 0.02 82 1013.4
20260906024501 61 14 0.0 1.0 0.00 0.02 0.02 83 1013.9
20260906023956 61 14 1.0 1.0 0.00 0.02 0.02 82 1013.5
20260906023452 61 349 0.0 1.0 0.00 0.02 0.02 82 1013.7
20260906022947 61 0 2.0 2.0 0.00 0.02 0.02 83 1013.5
20260906022443 61 317 0.0 0.0 0.00 0.02 0.02 84 1013.5
20260906021937 60 8 1.0 1.0 0.00 0.02 0.02 85 1013.5
20260906021432 60 336 0.0 0.0 0.00 0.02 0.02 85 1013.5
20260906020926 60 310 0.0 0.0 0.00 0.02 0.02 86 1013.4
20260906020421 60 317 0.0 0.0 0.00 0.02 0.02 87 1013.6
20260906015915 60 348 0.0 0.0 0.00 0.02 0.02 87 1013.2
20260906015415 60 346 0.0 0.0 0.00 0.02 0.02 86 1013.5
20260906014909 60 27 1.0 1.0 0.00 0.02 0.02 87 1013.5
20260906014408 59 306 1.0 2.0 0.00 0.02 0.02 89 1013.4
20260906013905 59 322 0.0 0.0 0.00 0.02 0.02 91 1013.7
20260906013400 58 350 2.0 2.0 0.00 0.02 0.02 91 1013.4
20260906012855 59 323 0.0 0.0 0.00 0.02 0.02 92 1013.6
20260906012350 59 327 0.0 0.0 0.00 0.02 0.02 91 1013.7
20260906011845 58 328 0.0 0.0 0.00 0.02 0.02 92 1013.4
20260906011339 57 329 0.0 0.0 0.00 0.02 0.02 93 1013.3
20260906010835 57 316 0.0 0.0 0.00 0.02 0.02 96 1013.3
20260906010331 57 323 0.0 0.0 0.00 0.02 0.02 96 1013.3
20260906005826 57 320 0.0 0.0 0.00 0.02 0.02 95 1013.5
20260906005325 57 320 0.0 0.0 0.00 0.02 0.02 94 1013.5
20260906004819 58 320 0.0 0.0 0.00 0.02 0.02 94 1013.4
20260906004319 58 321 0.0 0.0 0.00 0.02 0.02 93 1013.3
20260906003814 59 322 0.0 0.0 0.00 0.02 0.02 92 1013.1
20260906003309 59 321 0.0 0.0 0.00 0.02 0.02 91 1013.1
20260906002805 60 322 0.0 0.0 0.00 0.02 0.02 90 1013.0
20260906002306 60 322 0.0 0.0 0.00 0.02 0.02 89 1013.1
20260906001800 61 322 0.0 0.0 0.00 0.02 0.02 88 1013.2
20260906001255 61 322 0.0 0.0 0.00 0.02 0.02 87 1013.2
20260906000749 61 322 0.0 0.0 0.00 0.02 0.02 86 1013.1
20260906000244 62 322 0.0 0.0 0.00 0.02 0.02 86 1013.0
20260905235738 62 324 0.0 0.0 0.00 0.02 0.02 85 1013.0
20260905235233 62 326 0.0 0.0 0.00 0.02 0.02 85 1013.0
20260905234729 62 320 0.0 0.0 0.00 0.02 0.02 86 1012.7
20260905234224 63 320 0.0 0.0 0.00 0.02 0.02 84 1012.8
20260905233719 63 320 0.0 0.0 0.00 0.02 0.02 83 1012.8
20260905233218 63 328 0.0 0.0 0.00 0.02 0.02 83 1012.9
20260905232713 63 329 0.0 0.0 0.00 0.02 0.02 81 1012.9
20260905232209 63 329 0.0 0.0 0.00 0.02 0.02 81 1012.7
20260905231705 63 311 0.0 0.0 0.00 0.02 0.02 82 1012.5
20260905231200 63 311 0.0 0.0 0.00 0.02 0.02 80 1012.7
20260905230656 64 311 0.0 0.0 0.00 0.02 0.02 79 1012.3
20260905230154 64 311 0.0 0.0 0.00 0.02 0.02 78 1012.4
20260905225653 64 347 1.0 1.0 0.00 0.02 0.02 78 1012.3
20260905225148 64 298 0.0 0.0 0.00 0.02 0.02 81 1012.4
20260905224648 64 287 0.0 0.0 0.00 0.02 0.02 80 1012.6
20260905224142 65 292 0.0 0.0 0.00 0.02 0.02 78 1012.4
20260905223639 66 294 0.0 0.0 0.00 0.02 0.02 75 1012.3
20260905223136 67 300 0.0 0.0 0.00 0.02 0.02 74 1012.2
20260905222631 68 294 0.0 0.0 0.00 0.02 0.02 73 1012.2
20260905222126 68 323 0.0 0.0 0.00 0.02 0.02 73 1012.2
20260905221621 68 93 2.0 2.0 0.00 0.02 0.02 70 1012.2
20260905221118 69 298 0.0 0.0 0.00 0.02 0.02 71 1012.1
20260905220613 69 312 0.0 0.0 0.00 0.02 0.02 71 1012.0
20260905220109 69 317 0.0 0.0 0.00 0.02 0.02 69 1011.7
20260905215609 68 316 0.0 0.0 0.00 0.02 0.02 68 1011.7
20260905215105 68 3 1.0 1.0 0.00 0.02 0.02 68 1011.9
20260905214601 68 8 1.0 1.0 0.00 0.02 0.02 67 1011.9
20260905214100 69 325 1.0 1.0 0.00 0.02 0.02 67 1011.9
20260905213556 69 338 1.0 1.0 0.00 0.02 0.02 66 1011.7
20260905213051 69 10 4.0 6.0 0.00 0.02 0.02 67 1011.7
20260905212551 69 346 1.0 1.0 0.00 0.02 0.02 69 1011.6
20260905212045 69 306 0.0 1.0 0.00 0.02 0.02 69 1011.6
20260905211540 69 341 1.0 1.0 0.00 0.02 0.02 68 1011.6
20260905211036 70 18 6.0 8.0 0.00 0.02 0.02 66 1011.5
20260905210531 72 67 3.0 3.0 0.00 0.02 0.02 64 1011.2
20260905210026 72 243 1.0 2.0 0.00 0.02 0.02 65 1011.2
20260905205526 72 357 2.0 3.0 0.00 0.02 0.02 65 1011.3
20260905205025 71 349 1.0 2.0 0.00 0.02 0.02 66 1011.2
20260905204520 71 358 2.0 2.0 0.00 0.02 0.02 67 1011.2
20260905204015 70 59 0.0 1.0 0.00 0.02 0.02 68 1011.4
20260905203510 71 51 4.0 6.0 0.00 0.02 0.02 68 1011.3
20260905203005 71 44 2.0 4.0 0.00 0.02 0.02 69 1011.1
20260905202500 70 300 2.0 3.0 0.00 0.02 0.02 70 1011.1
20260905201955 70 344 2.0 4.0 0.00 0.02 0.02 70 1011.2
20260905201451 70 25 1.0 2.0 0.00 0.02 0.02 71 1011.3
20260905200950 70 309 0.0 1.0 0.00 0.02 0.02 72 1011.0
20260905200446 70 5 2.0 2.0 0.00 0.02 0.02 70 1011.2
20260905195945 70 27 2.0 2.0 0.00 0.02 0.02 70 1011.1
20260905195440 70 29 3.0 4.0 0.00 0.02 0.02 70 1011.2
20260905194936 70 139 1.0 2.0 0.00 0.02 0.02 71 1011.1
20260905194434 70 10 1.0 2.0 0.00 0.02 0.02 71 1011.2
20260905193929 71 53 4.0 4.0 0.00 0.02 0.02 70 1011.0
20260905193424 71 307 1.0 2.0 0.00 0.02 0.02 69 1011.2
20260905192919 71 52 4.0 4.0 0.00 0.02 0.02 70 1011.0
20260905192414 71 18 2.0 2.0 0.00 0.02 0.02 70 1010.9
20260905191915 71 26 3.0 3.0 0.00 0.02 0.02 70 1010.8
20260905191414 71 290 2.0 3.0 0.00 0.02 0.02 70 1010.9
20260905190908 71 27 1.0 1.0 0.00 0.02 0.02 70 1010.9
20260905190400 71 332 3.0 4.0 0.00 0.02 0.02 69 1010.9
20260905185859 71 41 3.0 3.0 0.00 0.02 0.02 70 1010.9
20260905185355 71 318 0.0 1.0 0.00 0.02 0.02 72 1010.9
20260905184853 72 9 3.0 4.0 0.00 0.02 0.02 69 1011.0
20260905184353 71 266 4.0 6.0 0.00 0.02 0.02 68 1010.8
20260905183851 72 38 3.0 8.0 0.00 0.02 0.02 69 1010.8
20260905183347 72 24 4.0 6.0 0.00 0.02 0.02 68 1011.0
20260905182841 71 304 2.0 3.0 0.00 0.02 0.02 71 1010.9
20260905182336 70 14 3.0 3.0 0.00 0.02 0.02 71 1011.0
20260905181832 69 17 5.0 7.0 0.00 0.02 0.02 74 1011.1
20260905181331 69 315 3.0 4.0 0.00 0.02 0.02 74 1011.0
20260905180830 69 17 0.0 1.0 0.00 0.02 0.02 76 1011.0
20260905180325 70 313 3.0 6.0 0.00 0.02 0.02 74 1011.0
20260905175820 70 76 5.0 8.0 0.00 0.02 0.02 74 1010.9
20260905175314 71 12 7.0 13.0 0.00 0.02 0.02 71 1011.1
20260905174810 71 52 1.0 1.0 0.00 0.02 0.02 76 1010.9
20260905174306 71 314 2.0 3.0 0.00 0.02 0.02 74 1011.0
20260905173801 69 94 2.0 3.0 0.00 0.02 0.02 74 1011.1
20260905173257 68 332 2.0 3.0 0.00 0.02 0.02 79 1011.3
20260905172757 68 353 3.0 3.0 0.00 0.02 0.02 80 1011.2
20260905172255 68 341 1.0 2.0 0.00 0.02 0.02 80 1011.2
20260905171752 68 289 1.0 2.0 0.00 0.02 0.02 79 1011.1
20260905171248 67 106 3.0 4.0 0.00 0.02 0.02 81 1011.2
20260905170744 67 298 1.0 2.0 0.00 0.02 0.02 82 1011.1
20260905170239 68 306 1.0 2.0 0.00 0.02 0.02 81 1011.1
20260905165738 70 49 4.0 4.0 0.00 0.02 0.02 78 1011.1
20260905165234 70 307 0.0 0.0 0.00 0.02 0.02 81 1011.0
20260905164728 68 232 2.0 3.0 0.00 0.02 0.02 80 1011.4
20260905164223 68 10 1.0 2.0 0.00 0.02 0.02 85 1011.2
20260905163719 68 334 1.0 1.0 0.00 0.02 0.02 89 1011.3
20260905163215 67 14 0.0 1.0 0.00 0.02 0.02 92 1011.2
20260905162710 66 77 3.0 3.0 0.00 0.02 0.02 93 1011.4
20260905162210 65 236 1.0 1.0 0.00 0.02 0.02 96 1011.3
20260905161659 64 357 0.0 0.0 0.00 0.02 0.02 97 1011.4
20260905161157 63 312 0.0 1.0 0.12 0.02 0.02 95 1011.4
20260905160651 67 39 2.0 4.0 0.12 0.02 0.02 90 1011.4
20260905160150 69 15 4.0 6.0 0.00 0.00 0.00 84 1011.1
20260905155644 68 281 4.0 6.0 0.00 0.00 0.00 83 1011.1
20260905155143 67 359 2.0 3.0 0.00 0.00 0.00 86 1011.1
20260905154638 67 4 1.0 1.0 0.00 0.00 0.00 87 1011.2
20260905154134 66 347 4.0 4.0 0.00 0.00 0.00 87 1011.1
20260905153629 66 298 3.0 3.0 0.00 0.00 0.00 88 1011.2
20260905153125 68 291 3.0 3.0 0.00 0.00 0.00 86 1011.1
20260905152620 67 74 3.0 4.0 0.00 0.00 0.00 84 1011.0
20260905152114 68 347 1.0 2.0 0.00 0.00 0.00 83 1011.0
20260905151609 68 333 1.0 2.0 0.00 0.00 0.00 82 1011.1
20260905151104 68 16 2.0 2.0 0.00 0.00 0.00 81 1011.0
20260905150600 67 359 1.0 2.0 0.00 0.00 0.00 85 1010.9
20260905150057 67 240 2.0 2.0 0.00 0.00 0.00 85 1011.1
20260905145551 67 68 2.0 3.0 0.00 0.00 0.00 85 1011.1
20260905145050 67 339 3.0 4.0 0.00 0.00 0.00 84 1011.0
20260905144545 67 7 2.0 3.0 0.00 0.00 0.00 84 1011.0
20260905144043 67 267 3.0 4.0 0.00 0.00 0.00 86 1011.0
20260905143538 67 7 1.0 2.0 0.00 0.00 0.00 86 1011.0
20260905143033 67 303 4.0 4.0 0.00 0.00 0.00 85 1010.8
20260905142531 67 79 4.0 6.0 0.00 0.00 0.00 85 1011.0
20260905142027 67 285 0.0 1.0 0.00 0.00 0.00 85 1010.8
20260905141521 66 18 6.0 8.0 0.00 0.00 0.00 86 1010.6
20260905141018 66 312 1.0 2.0 0.00 0.00 0.00 86 1010.6
20260905140513 66 344 2.0 2.0 0.00 0.00 0.00 88 1010.5
20260905140012 65 36 2.0 2.0 0.00 0.00 0.00 88 1010.5
20260905135508 65 275 0.0 0.0 0.00 0.00 0.00 90 1010.8
20260905135007 65 111 4.0 4.0 0.00 0.00 0.00 90 1010.4
20260905134502 66 337 2.0 3.0 0.00 0.00 0.00 87 1010.4
20260905134001 66 42 3.0 3.0 0.00 0.00 0.00 87 1010.5
20260905133455 66 11 3.0 4.0 0.00 0.00 0.00 87 1010.3